Location: Taramia
(40.6167°S, 175.5333°E)
Time: 01:58:19
(UTC+00:00)

Daily predictions for brighter satellites

Satellite Brightness Start Highest point End
(mag) Time Altitude Azimuth Time Altitude Azimuth Time Altitude Azimuth
COSMOS 2428 2.8 08:04:07 10° SSW 08:09:54 75° ESE 08:15:37 10° NNE
Meteor 1-27 Rocket 4.5 08:05:55 10° SSW 08:11:28 58° W 08:17:05 10° N
Cosmos 1842 Rocket 3.7 08:09:28 10° S 08:14:01 90° E 08:18:29 10° N
NOSS 0 Rocket 4.0 08:20:19 10° SSW 08:26:35 76° ESE 08:32:44 10° NNE
Cosmos 783 Rocket 4.5 08:21:34 10° NNW 08:26:50 81° ENE 08:32:07 10° SSE
SPOT 5 3.8 08:23:26 10° SSE 08:28:17 34° E 08:33:07 10° NNE
Meteor 1-18 Rocket 4.4 08:23:24 10° S 08:29:24 79° E 08:35:13 10° NNE
CSL-04 Rocket 4.2 08:26:39 10° SSE 08:31:41 38° E 08:36:42 10° NNE
Cosmos 1174 4.4 08:29:12 10° SSW 08:33:38 82° WNW 08:39:04 10° NNE
USA 186 3.7 08:35:57 10° ESE 08:36:49 11° E 08:37:01 11° E
USA 267 4.4 08:31:15 10° SE 08:37:34 49° SSW 08:43:51 10° WNW
Cosmos 1805 4.3 08:35:26 10° NNW 08:38:40 40° W 08:41:57 10° S
USA 290 3.9 08:36:10 10° NW 08:39:14 38° WSW 08:42:21 10° S
SJ-6B 3.3 08:36:04 10° S 08:39:32 55° WSW 08:42:58 10° NNW
Meteor 1-31 Rocket 2.4 08:36:04 10° SSE 08:39:38 85° ENE 08:43:08 10° NNW
ATLAS 3B R/B 2.6 08:33:33 10° SSW 08:39:53 83° SE 08:45:56 13° NE
Cosmos 1975 4.1 08:41:08 15° NE 08:43:02 21° E 08:45:55 10° SE
SL-16 R/B 3.9 08:46:26 10° S 08:50:43 21° SE 08:54:55 10° E
Cosmos 1709 Rocket 4.1 08:45:03 10° N 08:51:08 60° E 08:57:23 10° SSE
BREEZE-M DEB (TANK) 3.6 08:48:20 10° WSW 08:51:59 32° S 08:54:25 10° ESE
Cosmos 1766 3.1 08:49:55 14° NNE 08:52:40 50° E 08:56:00 10° SSE
Cosmos 2297 Rocket 2.7 08:48:58 10° NW 08:54:35 64° WSW 09:00:16 10° SSE
Cosmos 1745 Rocket 4.0 08:49:02 10° N 08:55:12 88° E 09:01:30 10° S
ATLAS CENTAUR R/B 1.3 08:54:14 20° NNE 08:55:28 28° ENE 08:58:02 10° SE
Cosmos 1151 Rocket 3.0 08:53:31 10° S 08:57:58 90° SSE 09:01:47 13° N
ARIANE 6 FM1 Upper Stage 3.8 08:56:26 10° NW 09:00:44 52° SW 09:05:10 10° SSE
Cosmos 1980 3.7 08:56:22 10° SSW 09:02:06 88° ESE 09:06:29 17° NNE
Meteor 2-9 Rocket 4.3 08:57:09 10° N 09:02:26 57° E 09:07:55 10° SSE
CSL-04 Debris 4.1 08:57:44 10° SSE 09:03:12 69° ENE 09:08:33 10° N
Cosmos 1536 3.3 08:59:54 10° NNW 09:03:34 55° W 09:07:16 10° S
Cosmos 1300 3.3 09:04:50 22° E 09:04:52 22° E 09:07:07 10° SE
SL-4 R/B 2.7 09:02:17 10° WSW 09:06:09 41° NW 09:08:27 21° NNE
CZ-4B R/B 3.5 09:04:26 10° SSE 09:09:34 44° E 09:13:16 18° NNE
Cosmos 2219 4.2 09:07:24 20° NE 09:10:03 28° ENE 09:14:50 10° SE
Nadezhda 1 Rocket 4.3 09:05:17 10° SSW 09:11:44 71° W 09:18:06 10° N
USA 234 3.3 09:07:17 18° NE 09:12:21 87° NW 09:18:59 10° SW
Meteor 1-14 Rocket 4.2 09:07:31 10° N 09:13:04 87° W 09:18:44 10° S
Cosmos 1867 4.4 09:10:24 19° NNE 09:13:08 30° ENE 09:17:47 10° SE
Cosmos 1908 3.5 09:11:45 10° NNW 09:14:38 47° W 09:17:34 10° S
Cosmos 2237 Rocket 2.3 09:09:09 10° SSW 09:14:55 80° WNW 09:19:00 20° NNE
OAO 3 Rocket 3.5 09:10:42 10° WNW 09:15:08 42° N 09:17:19 25° NE
Helios 1A 3.2 09:12:06 17° N 09:15:09 63° WNW 09:19:11 10° SSW
CZ-4B DEB 4.1 09:10:35 10° SSE 09:16:06 78° ENE 09:21:33 10° N
Okean O Rocket 2.6 09:13:48 10° SE 09:17:42 29° E 09:18:58 25° NE
Okean-O 3.7 09:15:04 10° SE 09:18:48 26° E 09:19:47 24° ENE
SL-14 R/B 3.3 09:16:33 10° SSW 09:20:22 71° W 09:22:40 22° N
ISS -2.7 09:21:09 10° WNW 09:24:27 49° SSW 09:27:47 10° SE
CZ-4B R/B 4.0 09:21:34 10° SE 09:24:50 25° E 09:25:08 24° ENE
Meteor 1-11 Rocket 3.7 09:20:50 16° N 09:25:22 69° E 09:30:57 10° SSE
Resurs 01 Rocket 4.4 09:23:30 10° SSW 09:26:41 19° WSW 09:29:51 10° WNW
OAO 2 Rocket 3.8 09:22:14 10° WNW 09:27:03 42° N 09:29:10 28° NE
Cosmos 1470 2.5 09:26:57 37° NNE 09:28:06 60° E 09:31:34 10° SSE
Feng Yun 1-1 Rocket 4.3 09:23:04 10° SSE 09:29:06 84° ENE 09:34:39 12° NNW
ADEOS 3.5 09:26:00 10° SSE 09:31:19 82° ENE 09:35:38 15° NNW
Cosmos 724 4.2 09:25:47 10° NNW 09:31:33 86° ENE 09:37:23 10° SSE
Cosmos 1271 Rocket 3.1 09:28:55 10° SSW 09:32:15 48° W 09:33:56 25° NNW
Cosmos 2263 Rocket 2.1 09:30:13 12° N 09:35:27 68° ENE 09:41:07 10° SSE
Terra 1.8 09:31:06 10° SSE 09:35:50 61° E 09:38:10 29° N
Meteor 1-13 Rocket 4.3 09:30:07 10° S 09:36:01 70° ESE 09:39:06 28° NNE
Okean 3 Rocket 4.5 09:39:23 30° ENE 09:40:11 32° E 09:44:14 10° SSE
CZ-4 R/B 3.1 09:38:59 10° S 09:42:22 30° WSW 09:45:45 10° NW
USA 281 4.0 09:36:52 10° SE 09:42:34 30° ENE 09:44:13 27° NE
Cosmos 2227 Rocket 2.8 09:40:01 10° NW 09:45:36 57° WSW 09:51:16 10° SSE
Ariane Rocket 4.5 09:44:15 10° SE 09:47:57 20° E 09:48:08 20° E
MOS 1-B 4.4 09:43:05 10° SSE 09:48:51 58° ENE 09:51:35 30° NNE
ERS-1 Rocket 2.9 09:44:40 10° SSE 09:49:46 88° WSW 09:52:56 23° NNW
Cosmos 1680 Rocket 3.8 09:47:55 34° NNE 09:49:50 50° ENE 09:55:00 10° SSE
Cosmos 2074 Rocket 4.1 09:49:02 30° NNE 09:52:07 59° E 09:58:18 10° SSE
CZ-4C R/B 3.1 09:44:43 10° NNW 09:53:42 68° ENE 10:01:21 10° SE
Cosmos 2181 Rocket 4.0 09:47:34 10° S 09:54:08 77° E 09:57:23 32° NNE
USA 32 4.3 09:55:12 37° NE 09:56:56 53° E 10:02:06 10° SSE
Cosmos 494 Rocket 4.5 09:57:00 36° ENE 09:57:47 39° ENE 10:02:34 10° SE
GP-B 4.1 09:55:55 10° SSE 09:59:49 29° E 10:00:05 29° E
BREEZE-M TANK 4.2 09:56:58 10° WSW 10:01:10 60° S 10:13:52 10° E
Cosmos 2084 Rocket 3.7 10:02:03 46° ENE 10:02:03 46° ENE 10:05:45 10° SE
IRS-1A Rocket 4.1 09:57:36 10° SSE 10:03:15 79° ENE 10:05:57 32° N
Cosmos 1515 Rocket 3.8 09:59:47 10° S 10:04:08 53° E 10:04:51 47° ENE
SPOT 3 Rocket 4.2 10:00:50 10° SSE 10:05:38 35° E 10:06:14 34° ENE
Cosmos 1607 4.4 10:00:05 10° NW 10:06:26 64° SW 10:12:51 10° SSE
USA 186 3.6 10:04:30 10° SSW 10:06:48 23° WSW 10:07:47 19° WNW
CZ-2C R/B 2.7 10:03:45 10° S 10:06:49 54° WSW 10:07:09 51° WNW
Spot 2 Rocket 3.4 10:03:32 10° SSE 10:08:43 72° ENE 10:10:25 42° N
Meteor 2-13 Rocket 4.4 10:03:33 10° S 10:09:43 76° E 10:12:06 39° NNE
GRACE-FO 1 4.3 10:09:47 82° NNW 10:09:55 86° W 10:13:30 10° S
GRACE-FO 2 4.3 10:10:12 81° NNW 10:10:20 85° W 10:13:54 10° S
Cosmos 1295 Rocket 4.4 10:08:05 30° N 10:11:24 89° ENE 10:17:40 10° S
BREEZE-M DEB (TANK) 2.5 10:06:43 10° WSW 10:12:15 50° NW 10:12:15 50° NW
Meteor 1-21 4.2 10:07:11 10° S 10:13:04 78° E 10:15:09 42° NNE
Helios 1B rocket 4.0 10:10:28 10° SE 10:12:10 19° ESE 10:12:10 19° ESE
Meteor 2-10 Rocket 4.3 10:17:20 36° ENE 10:18:13 38° E 10:23:28 10° SSE
Cosmos 1818 4.2 10:14:45 10° SW 10:19:53 44° WNW 10:21:28 35° NNW
CZ-4B R/B 3.5 10:17:35 10° SSE 10:22:57 88° ENE 10:24:46 43° NNW
Okean 2 3.9 10:21:53 10° S 10:25:27 43° ESE 10:25:27 43° ESE
Cosmos 2184 Rocket 4.0 10:24:55 32° NNW 10:27:57 77° W 10:34:15 10° S
ATLAS CENTAUR R/B 3.7 10:28:40 10° W 10:30:20 14° SW 10:32:00 10° SSW
Cosmos 2082 3.7 10:27:51 30° NNW 10:30:51 80° WSW 10:36:38 10° SSE
Geosat 4.5 10:28:35 10° SE 10:33:06 41° ENE 10:33:06 41° ENE
Cosmos 1805 Rocket 3.5 10:34:55 67° ENE 10:34:59 68° E 10:39:25 10° SSE
SL-16 R/B 2.4 10:29:36 10° SSW 10:35:16 63° WNW 10:36:47 46° NNW
Cosmos 2227 4.4 10:35:39 47° ENE 10:36:04 48° ENE 10:41:31 10° SE
IRS-1C Rocket 4.0 10:34:36 10° SSE 10:39:56 69° ENE 10:40:47 58° NNE
BREEZE-M DEB (TANK) 4.2 10:23:31 10° WSW 10:40:16 76° SSE 10:42:07 38° E
CZ-2C R/B 4.0 10:45:50 49° WNW 10:46:17 52° W 10:50:41 10° SSW
Sich 1 3.5 10:48:02 48° WNW 10:48:33 52° W 10:52:41 10° S
Cosmos 2112 Rocket 4.5 10:46:29 32° NW 10:48:48 59° WSW 10:54:09 10° SSE
Cosmos 2341 Rocket 4.4 10:47:38 42° ENE 10:48:52 48° E 10:54:56 10° SSE
Landsat 5 4.0 10:51:19 50° ESE 10:51:19 50° ESE 10:55:28 10° S
Okean O Rocket 3.5 10:50:06 10° SSW 10:53:45 25° WSW 10:56:12 16° WNW
Cosmos 2219 4.3 10:49:12 13° NW 10:53:56 42° WSW 10:59:22 10° S
Okean-O 4.3 10:51:13 10° S 10:55:01 28° WSW 10:57:08 19° WNW
Cosmos 1500 Rocket 3.6 10:54:57 70° WNW 10:55:11 72° W 10:59:42 10° S
Cosmos 2056 Rocket 3.5 10:49:49 10° SSW 10:55:15 76° WNW 10:56:04 62° NNW
Cosmos 1943 3.2 10:53:14 10° SSW 10:58:57 74° ESE 10:59:58 59° NE
ISS -0.5 10:59:41 10° SW 11:01:52 16° SSW 11:04:04 10° SSE
ATLAS 5 CENTAUR R/B 3.2 11:04:48 10° SSW 11:10:04 34° SE 11:11:46 27° E
Meteor 2-19 Rocket 4.4 11:04:08 10° S 11:10:15 69° E 11:11:24 56° NE
Terra 4.4 11:10:06 10° SSW 11:12:48 15° WSW 11:15:30 10° W
Cosmos 1844 Rocket 2.6 11:12:41 67° N 11:13:29 85° ENE 11:19:12 10° SSE
PSLV R/B 3.9 11:16:09 56° WSW 11:16:09 56° WSW 11:19:57 10° SSW
Cosmos 1862 Rocket 4.3 11:13:04 10° S 11:16:50 44° ESE 11:16:50 44° ESE
Cosmos 1371 Rocket 4.5 11:13:03 10° SSW 11:18:07 48° WNW 11:18:30 47° WNW
Cosmos 1331 Rocket 4.1 11:17:08 10° SSW 11:22:29 67° ESE 11:22:56 63° E
Ariane Rocket 3.7 11:22:08 10° S 11:27:03 48° WSW 11:28:13 40° WNW
USA 281 3.8 11:20:51 10° SSE 11:27:13 52° WSW 11:31:05 24° NW
Cosmos 1048 Rocket 4.3 11:26:21 52° WNW 11:27:21 62° WSW 11:32:40 10° SSE
Cosmos 1603 3.8 11:25:42 10° SSW 11:31:27 66° ESE 11:32:20 57° ENE
Cosmos 2218 Rocket 4.0 11:31:06 61° N 11:32:22 88° E 11:38:53 10° S
Cosmos 2228 Rocket 3.6 11:31:38 10° S 11:35:33 54° SE 11:35:33 54° SE
Cosmos 1953 4.1 11:39:20 23° SE 11:39:20 23° SE 11:41:17 10° SSE
Cosmos 381 Rocket 4.5 11:37:23 55° NW 11:38:51 77° WSW 11:45:11 10° SSE
Cosmos 1707 Rocket 3.8 11:35:36 10° S 11:39:31 67° S 11:39:31 67° S
CZ-4C R/B 4.4 11:34:45 10° WNW 11:42:35 36° SW 11:49:13 10° SSE
Helios 1B rocket 4.2 11:43:46 10° SSW 11:46:30 22° WSW 11:46:30 22° WSW
Cosmos 1959 Rocket 4.5 11:48:38 59° NW 11:49:43 73° W 11:55:55 10° S
Meteor 1-22 Rocket 4.1 11:52:00 77° N 11:52:27 87° E 11:58:05 10° S
Cosmos 1666 Rocket 4.1 11:53:37 56° SW 11:53:37 56° SW 11:57:41 10° S
